Theta_e
333 345 345 340 339 336 338 344 347 348 349 348 348 347 345 344 343 342 341 339 339 336 331 330 328 325 321 320 318 317 315 315 319 329 337 339 341 341 342 341 336 340 333
331 345 338 341 339 337 333 335 340 343 346 348 348 347 344 343 342 341 341 339 336 330 328 326 321 317 316 315 315 314 313 313 314 319 329 336 339 341 340 340 339 340 332
330 344 336 341 340 337 334 333 332 335 341 345 344 337 337 338 338 339 338 333 330 327 323 318 316 316 315 314 314 314 313 312 311 313 318 333 338 336 339 340 338 339 333
322 332 345 341 340 337 334 333 332 331 330 330 329 329 331 331 333 335 332 329 328 322 317 317 316 315 316 317 316 315 314 314 313 314 322 330 335 329 333 339 338 341 336
330 335 332 337 340 338 334 332 330 328 326 324 325 325 327 327 328 328 328 327 323 318 317 318 316 317 318 318 318 317 314 314 322 332 335 333 332 333 330 335 338 341 339
336 341 327 331 337 338 334 332 329 326 325 322 323 324 325 325 325 326 326 325 321 318 318 317 317 318 320 321 322 322 318 315 328 336 336 333 332 332 328 332 336 336 340
335 340 331 329 335 335 333 332 331 328 324 322 323 323 324 324 324 325 324 323 320 318 316 316 316 318 320 321 323 324 324 318 332 336 335 335 334 332 330 332 338 337 335
337 341 340 329 334 335 332 330 331 329 327 324 323 323 323 324 324 324 323 321 320 318 317 316 316 318 320 321 323 324 325 325 330 334 334 335 335 332 330 334 335 334 332
338 341 345 335 331 334 336 330 331 331 330 326 324 324 324 325 325 324 323 322 321 319 319 317 316 318 320 321 323 325 326 325 334 333 331 330 333 333 333 331 333 333 333
337 338 343 345 343 345 345 333 327 329 330 329 326 329 328 328 328 328 326 325 323 321 320 318 317 319 321 322 322 325 326 326 335 334 332 331 325 332 333 332 332 332 331
336 339 342 344 345 346 346 343 330 329 332 331 330 331 330 341 342 341 336 331 326 323 321 321 321 322 325 326 324 325 327 334 335 333 334 331 328 328 334 333 332 333 331
335 338 341 344 345 346 345 345 341 338 337 335 338 343 342 346 344 344 342 331 330 327 323 321 320 321 327 332 333 329 333 335 335 334 334 330 330 329 333 334 333 333 334
336 335 339 343 341 342 342 343 344 343 343 339 332 337 344 343 334 339 342 341 341 337 337 334 334 332 331 333 332 332 333 335 334 334 333 327 332 331 332 334 334 333 332
335 332 336 337 336 338 341 340 339 339 335 329 328 328 336 330 334 338 339 338 340 338 338 336 334 334 334 332 332 332 332 332 331 332 332 326 329 335 336 336 335 334 333
337 335 330 329 330 335 337 338 333 327 322 321 323 326 332 335 334 331 332 332 331 334 334 334 333 333 333 333 332 332 330 331 331 331 331 325 324 327 336 337 335 335 333
328 330 338 328 325 326 328 331 337 327 327 326 328 326 323 325 327 329 327 327 325 327 331 332 332 332 332 332 332 332 332 332 334 334 332 331 328 328 335 337 336 335 333
317 318 326 335 333 328 325 323 328 327 329 325 324 323 321 321 322 321 326 323 323 324 322 326 332 333 332 333 332 333 334 335 336 337 335 336 337 336 336 335 335 335 334
315 320 318 325 333 337 333 329 328 324 325 325 323 322 320 321 322 323 322 323 322 324 326 332 334 334 334 334 334 335 336 336 337 338 337 337 339 339 339 334 335 335 334
312 328 318 315 323 327 339 335 333 330 327 323 326 324 322 322 324 322 323 323 324 329 332 334 335 336 336 336 335 335 336 337 338 338 339 339 339 337 339 337 334 334 334
311 310 320 314 315 327 341 341 337 335 330 327 325 325 325 325 326 324 324 326 329 332 336 336 337 337 337 337 335 335 337 338 339 339 340 340 340 340 339 337 338 337 335
312 312 312 312 313 316 340 343 341 340 338 335 330 326 325 329 331 330 326 332 336 337 339 338 339 338 338 337 337 338 338 339 340 340 340 340 340 340 337 336 337 337 337
316 315 314 313 313 312 313 340 342 343 342 341 339 333 334 335 334 334 335 339 339 340 340 340 339 339 339 337 339 340 342 341 338 339 339 339 339 338 336 336 337 338 337
316 316 315 313 314 313 315 330 341 343 343 344 343 343 339 336 333 334 338 340 341 341 341 341 340 340 340 337 338 341 343 343 338 336 337 336 337 336 335 336 336 337 337
314 314 315 313 312 315 316 322 331 335 340 341 344 344 342 337 335 337 340 341 343 342 342 342 341 341 340 339 338 338 338 338 341 341 336 335 334 335 335 334 335 336 336
312 313 314 314 314 313 315 317 322 333 336 340 342 344 342 339 334 341 342 344 342 342 342 342 341 340 339 341 341 339 337 334 334 338 338 336 335 334 333 334 334 335 335
313 313 314 314 315 314 317 319 321 327 332 335 341 342 342 344 345 343 346 343 343 341 342 342 342 341 340 341 340 339 338 337 338 338 340 340 338 335 333 333 334 334 333
Wind_Speed
22 33 36 37 36 34 34 33 33 32 31 29 28 25 23 22 20 19 18 17 15 13 12 11 10 9 9 8 7 5 5 5 5 6 7 6 7 6 6 5 4 4 5
30 34 37 38 37 37 35 34 33 31 31 30 28 26 24 23 21 20 19 17 15 13 12 11 10 10 9 8 7 6 5 6 6 6 6 6 6 5 3 2 2 2 3
36 36 38 40 39 37 36 35 34 32 31 29 27 26 25 23 22 21 19 17 15 13 12 12 11 10 9 9 8 7 6 6 6 6 6 5 5 5 4 3 1 1 2
41 42 37 40 39 38 37 36 35 33 30 29 27 26 25 24 22 20 19 17 15 14 13 12 11 10 9 9 8 7 6 6 7 6 5 5 4 3 3 3 2 2 3
38 42 42 42 40 37 36 36 35 34 32 30 29 27 26 24 22 21 19 17 15 14 13 12 10 10 10 9 8 7 7 8 8 5 4 3 4 3 2 2 1 2 4
34 37 43 44 42 39 37 36 36 35 33 31 29 28 26 24 23 21 18 17 15 14 13 12 11 10 9 9 8 7 8 8 7 4 3 2 5 5 3 2 3 4 5
35 33 40 44 43 41 39 37 36 35 34 31 30 28 26 24 22 21 19 17 15 14 14 13 12 11 10 9 8 7 7 8 5 4 3 1 4 6 4 3 4 2 5
33 33 38 45 43 42 41 39 38 36 34 32 30 28 26 24 23 22 20 18 17 15 14 13 13 12 12 10 9 8 7 7 6 5 4 3 3 9 7 5 4 3 3
27 30 31 39 43 41 41 39 39 37 34 32 29 27 25 24 23 22 21 19 17 15 15 13 12 12 11 11 10 9 8 7 5 5 4 5 8 7 10 8 6 5 4
20 25 29 30 33 32 30 39 37 36 34 31 28 27 25 24 22 21 20 19 18 16 16 15 13 13 12 11 10 10 9 8 6 5 4 5 8 10 10 10 8 8 6
15 19 22 26 26 27 27 30 37 35 34 31 29 28 26 19 18 18 19 19 19 17 15 15 14 14 13 12 11 11 10 8 7 7 6 6 7 10 9 11 9 8 10
15 15 18 21 23 24 24 24 29 29 29 28 26 24 23 19 18 17 17 20 19 17 16 15 15 14 14 11 10 11 10 10 9 9 7 6 6 8 8 8 9 10 12
12 17 16 17 24 24 22 21 22 23 24 26 28 26 22 20 20 18 15 14 16 18 14 14 14 14 14 12 11 11 11 11 11 10 9 8 7 8 9 10 11 12 13
16 22 20 22 26 26 21 23 25 25 29 30 29 28 25 24 21 18 16 15 15 14 15 14 13 14 15 14 13 12 12 13 13 12 11 10 10 11 11 11 13 14 17
11 17 26 26 28 26 29 25 31 35 36 34 31 28 26 22 22 20 20 18 17 15 14 13 14 13 14 13 13 13 14 14 14 14 12 13 12 14 14 10 15 15 16
10 12 17 29 31 35 36 39 29 39 32 31 28 27 28 26 24 21 21 20 19 18 15 14 14 13 13 12 12 14 14 14 14 14 13 11 12 14 13 11 14 17 16
8 12 12 17 30 41 43 44 42 41 37 33 30 30 29 29 27 25 21 22 20 19 19 16 14 14 12 11 11 12 12 13 14 13 11 9 9 10 11 13 14 18 24
10 12 16 9 13 30 33 37 43 47 39 37 36 32 30 32 30 27 24 25 24 21 17 14 13 13 12 11 9 10 10 11 13 12 12 10 9 9 9 10 11 16 18
14 15 19 15 11 17 29 33 35 38 39 42 36 38 32 34 28 28 30 29 27 20 17 15 13 14 12 11 10 9 10 11 12 11 14 13 12 11 11 12 12 16 20
14 13 11 21 13 11 23 25 20 23 35 38 42 39 36 37 30 31 32 27 26 21 16 15 14 14 11 11 9 8 10 11 11 11 13 13 13 11 11 12 12 13 19
15 18 15 9 12 12 10 12 18 22 23 29 41 39 37 32 25 27 29 25 26 24 20 18 14 14 12 11 6 6 11 12 13 11 11 11 11 10 11 12 12 12 13
15 21 22 19 13 9 17 31 16 12 18 27 27 38 31 27 19 22 27 26 27 20 18 17 17 12 12 14 7 5 4 6 7 8 8 8 10 9 10 10 10 10 11
15 18 22 25 20 15 16 13 21 16 15 12 20 22 31 26 20 29 35 32 26 22 17 19 19 18 13 12 15 5 3 4 3 4 5 4 4 5 6 8 9 9 9
19 20 22 27 27 19 17 12 15 18 19 22 19 22 29 33 35 34 34 36 26 19 19 19 18 18 14 13 13 14 6 2 4 3 4 3 4 6 7 7 8 7 7
18 22 24 26 32 29 25 19 16 18 22 24 21 22 28 34 33 36 35 33 26 22 20 19 18 20 19 16 12 8 10 5 6 6 6 5 4 5 7 7 7 6 6
20 19 21 27 29 30 23 22 20 22 23 22 21 22 23 23 26 34 35 30 25 22 21 20 20 21 23 18 16 13 12 7 11 8 7 6 4 5 5 5 6 6 5
Wind_Direction
177 172 174 174 171 165 159 159 161 162 162 162 162 161 161 162 161 160 158 157 158 158 156 153 153 149 146 146 142 141 140 128 117 114 116 116 114 111 108 106 92 110 141
163 171 177 176 175 170 166 163 164 166 167 167 167 165 166 167 166 165 164 163 163 161 157 157 157 151 145 139 138 135 128 128 134 132 128 126 126 138 132 130 107 148 142
164 169 177 179 180 177 172 169 167 165 165 168 169 168 169 168 169 170 168 166 165 164 161 161 155 149 145 140 133 131 130 128 132 143 144 140 134 142 158 198 216 161 153
169 172 174 182 184 180 177 173 171 169 168 169 170 171 172 171 172 174 172 169 168 169 167 162 158 153 145 143 140 133 133 137 133 138 142 156 149 160 150 207 227 198 158
171 172 177 182 185 185 180 177 174 172 172 171 172 174 176 175 175 177 177 174 176 175 171 167 161 157 156 149 147 148 146 153 151 136 134 160 178 189 135 163 224 225 196
174 173 178 182 185 187 185 181 177 175 175 174 177 179 180 180 180 181 182 180 183 180 178 173 171 167 164 159 159 158 150 169 156 153 127 86 184 193 167 180 207 212 219
174 175 177 183 186 187 188 186 183 180 179 180 182 184 186 186 185 186 186 189 191 191 187 181 180 178 176 173 174 173 170 174 182 178 178 189 211 200 199 205 236 257 250
173 174 176 184 189 190 190 189 188 186 185 185 188 191 191 191 191 191 192 195 198 197 198 194 190 191 186 181 185 188 191 183 198 203 223 252 252 214 216 208 241 274 284
176 173 177 182 189 194 195 194 193 192 192 192 195 197 199 199 199 198 197 201 205 207 205 205 202 205 201 193 193 202 206 208 210 217 222 244 251 239 227 219 227 262 265
181 179 177 182 188 193 200 200 198 198 198 199 201 204 206 206 207 210 208 208 211 213 215 216 214 212 213 210 203 214 220 223 224 228 229 239 243 251 242 226 228 249 255
185 185 186 186 189 193 198 204 203 205 204 205 206 210 212 207 212 215 218 220 221 221 222 224 225 221 219 222 219 223 231 240 234 233 229 247 258 245 243 228 227 251 260
200 199 194 192 195 196 200 202 203 207 209 209 210 213 210 209 211 209 218 226 231 232 232 232 232 231 226 224 231 234 236 242 244 241 237 253 254 238 237 233 235 254 263
208 214 209 204 204 204 205 209 207 207 209 211 213 212 211 213 218 217 218 222 227 236 230 231 227 226 229 226 228 227 237 244 248 249 244 246 237 233 240 246 243 248 258
205 225 217 220 219 217 215 219 218 213 215 216 217 218 215 218 221 216 218 220 224 228 229 226 228 225 230 232 233 237 241 247 252 253 251 245 242 242 245 258 263 258 253
258 230 227 230 232 227 227 226 224 224 222 224 223 223 221 220 224 225 227 226 228 230 231 233 235 231 235 235 242 245 247 251 256 257 256 255 250 248 246 247 256 249 255
336 302 251 231 234 230 236 232 230 233 230 227 227 227 228 230 232 231 233 234 236 236 233 231 236 235 235 235 243 247 252 257 258 256 255 255 255 247 248 255 249 249 243
351 349 315 268 242 234 229 234 237 237 234 232 233 235 236 238 240 240 242 242 242 239 237 238 237 239 235 234 238 247 249 254 260 262 257 251 254 247 253 264 256 237 245
325 334 347 306 274 229 240 241 234 238 238 239 237 238 242 241 240 243 243 248 246 240 231 226 226 233 231 229 231 240 244 254 260 266 264 258 254 255 265 272 237 237 253
1 263 310 353 322 294 270 247 245 237 237 241 244 243 243 250 241 251 247 246 247 239 229 222 220 225 225 228 225 231 241 254 262 267 268 267 263 265 263 258 256 242 250
344 346 261 323 8 309 265 261 251 239 238 240 244 247 248 249 244 244 244 244 238 232 226 221 218 222 219 225 221 227 241 248 256 262 269 269 266 268 263 256 261 264 256
338 341 345 324 332 337 249 245 239 240 237 236 240 244 248 251 257 246 241 234 232 228 225 224 214 217 214 217 206 232 246 246 250 254 260 265 265 266 262 269 263 262 257
331 331 330 330 341 308 292 248 245 245 239 243 245 240 236 239 253 287 256 232 229 224 225 220 209 205 208 203 202 201 235 216 232 234 245 260 268 270 272 266 254 249 249
339 331 327 324 313 296 278 268 246 246 246 233 229 227 228 231 208 226 242 242 228 219 221 218 213 207 196 203 210 215 180 227 167 199 209 227 259 267 272 265 257 250 239
331 322 321 327 319 308 301 275 254 246 243 241 230 235 231 223 223 225 236 233 224 217 218 219 216 212 195 191 204 217 221 185 253 224 196 209 256 280 277 273 263 250 239
323 318 317 316 319 313 309 298 275 255 249 250 247 236 242 233 231 235 226 221 221 217 224 217 211 212 209 202 197 174 211 213 229 244 271 249 248 254 272 274 263 252 249
321 314 311 311 307 310 301 298 282 258 252 250 234 230 222 225 223 221 215 217 218 218 218 217 219 216 211 210 207 193 185 190 213 225 243 250 268 258 254 267 258 250 239